Terminal Aerodrome Forecast
Issued by NWS Quad Cities IA IL

Home | Current Version | Previous Version | Text Only | Print | Product List | Glossary On
Versions: 1 2 3 4 5 6 7 8 9 10 11 12 13 14 15 16 17 18 19 20 21 22 23 24 25 26 27 28 29
000
FTUS43 KDVN 181900 AAA
TAFDBQ
TAF AMD
KDBQ 181909Z 1819/1918 VRB02KT P6SM SCT015 BKN150
      TEMPO 1819/1822 BKN015
     FM190900 VRB02KT P6SM BKN060=

USA.gov is the U.S. government's official web portal to all federal, state and local government web resources and services.